Simultaneous Nadir Overpasses (SNOs) Predictions

Prediction of SNOs between METOP-B and TERRA Satellite Orbit:

Table of predicted SNOs for the next 14.0 days since TLE Epoch: 9/7/2024
Index Date (METOP-B) Time (METOP-B) Lat,Lon (METOP-B) SZA (METOP-B ) Date (TERRA) Time (TERRA) Lat,Lon (TERRA) SZA (TERRA ) Distance(km) Time Diff (sec)
1 09/07/2024 12:18:05 -79.84,-167.46 105.50 09/07/2024 12:18:03 -79.84,-167.36 105.49 2.19 2
2 09/10/2024 01:57:45 79.69, 166.33 75.28 09/10/2024 01:58:52 79.69, 166.29 75.29 1.07 67
3 09/10/2024 02:48:20 -79.89, -24.61 104.44 09/10/2024 02:48:08 -79.88, -24.67 104.45 1.40 12
4 09/12/2024 16:27:59 79.72, -50.99 76.32 09/12/2024 16:28:54 79.72, -51.03 76.33 0.70 55
5 09/12/2024 17:18:34 -79.92, 118.08 103.39 09/12/2024 17:18:10 -79.92, 118.07 103.39 0.39 24
6 09/15/2024 06:58:13 79.77, 91.81 77.40 09/15/2024 06:58:55 79.76, 91.71 77.39 2.07 42
7 09/15/2024 07:48:49 -79.93, -99.38 102.36 09/15/2024 07:48:12 -79.92, -99.43 102.38 1.07 37
8 09/17/2024 21:28:29 79.73,-126.11 78.36 09/17/2024 21:28:56 79.73,-126.06 78.37 1.18 27
9 09/17/2024 22:19:05 -79.89, 42.70 101.39 09/17/2024 22:18:13 -79.90, 42.84 101.39 2.79 52
10 09/20/2024 11:58:43 79.74, 16.37 79.39 09/20/2024 11:58:54 79.74, 16.50 79.40 2.61 11



Historial Predications of SNOs between METOP-B and TERRA
